TimeMDT,TemperatureF,Dew PointF,Humidity,Sea Level PressureIn,VisibilityMPH,Wind Direction,Wind SpeedMPH,Gust SpeedMPH,PrecipitationIn,Events,Conditions,WindDirDegrees,DateUTC
12:08 AM,57.2,55.0,92,30.40,10.0,North,8.1,-,N/A,Rain,Light Rain,10,2013-08-23 06:08:00
12:28 AM,57.4,54.3,90,30.39,10.0,NNW,9.2,-,N/A,Rain-Thunderstorm,Rain,340,2013-08-23 06:28:00
12:48 AM,57.2,52.9,85,30.37,10.0,North,11.5,-,N/A,Rain,Light Rain,360,2013-08-23 06:48:00
1:08 AM,57.4,52.0,82,30.37,10.0,NNW,11.5,19.6,N/A,Rain-Thunderstorm,Light Thunderstorms and Rain,340,2013-08-23 07:08:00
1:28 AM,57.0,52.3,84,30.39,10.0,NW,9.2,-,N/A,Rain,Light Rain,320,2013-08-23 07:28:00
1:48 AM,57.0,52.7,85,30.38,10.0,North,6.9,-,N/A,Rain,Light Rain,360,2013-08-23 07:48:00
2:08 AM,56.7,53.1,88,30.34,10.0,NNE,12.7,-,N/A,Rain,Light Rain,20,2013-08-23 08:08:00
2:28 AM,56.8,52.3,85,30.33,10.0,NNE,10.4,21.9,N/A,Rain,Light Rain,20,2013-08-23 08:28:00
2:48 AM,56.5,53.4,89,30.30,10.0,North,10.4,-,N/A,Rain,Light Rain,360,2013-08-23 08:48:00
3:08 AM,58.1,52.3,81,30.29,10.0,North,9.2,-,N/A,,Overcast,360,2013-08-23 09:08:00
3:28 AM,58.1,52.5,82,30.29,10.0,North,5.8,-,N/A,,Mostly Cloudy,350,2013-08-23 09:28:00
3:48 AM,58.3,52.3,81,30.28,10.0,NNW,6.9,-,N/A,,Scattered Clouds,340,2013-08-23 09:48:00
4:08 AM,57.2,52.9,85,30.28,10.0,NW,9.2,-,N/A,,Clear,320,2013-08-23 10:08:00
4:28 AM,56.7,52.9,87,30.27,10.0,WSW,3.5,-,N/A,,Clear,240,2013-08-23 10:28:00
4:48 AM,57.2,52.5,84,30.26,10.0,WSW,5.8,-,N/A,,Clear,250,2013-08-23 10:48:00
5:08 AM,56.7,53.1,88,30.26,10.0,SW,11.5,-,N/A,,Clear,230,2013-08-23 11:08:00
5:28 AM,56.5,52.9,88,30.26,10.0,SW,11.5,-,N/A,,Clear,220,2013-08-23 11:28:00
5:48 AM,56.3,53.1,89,30.25,10.0,NW,12.7,-,N/A,,Clear,310,2013-08-23 11:48:00
6:08 AM,56.7,52.7,87,30.24,10.0,West,5.8,-,N/A,,Clear,280,2013-08-23 12:08:00
6:28 AM,56.3,52.7,88,30.25,10.0,West,3.5,-,N/A,,Clear,280,2013-08-23 12:28:00
6:48 AM,58.6,50.4,74,30.25,10.0,Calm,Calm,-,N/A,,Clear,0,2013-08-23 12:48:00
7:08 AM,59.2,52.0,77,30.25,10.0,West,4.6,-,N/A,,Clear,260,2013-08-23 13:08:00
7:28 AM,60.8,52.5,74,30.26,10.0,WNW,4.6,-,N/A,,Clear,300,2013-08-23 13:28:00
7:48 AM,60.3,52.3,75,30.26,10.0,Calm,Calm,-,N/A,,Clear,0,2013-08-23 13:48:00
8:08 AM,60.8,53.1,76,30.26,10.0,Calm,Calm,-,N/A,,Clear,0,2013-08-23 14:08:00
8:28 AM,63.1,53.6,71,30.27,10.0,NE,4.6,-,N/A,,Clear,40,2013-08-23 14:28:00
8:48 AM,66.4,54.0,64,30.27,10.0,SSW,3.5,-,N/A,,Clear,210,2013-08-23 14:48:00
9:08 AM,67.1,54.7,64,30.27,10.0,SSW,5.8,-,N/A,,Clear,210,2013-08-23 15:08:00
9:28 AM,66.4,54.1,65,30.28,10.0,South,9.2,-,N/A,,Clear,190,2013-08-23 15:28:00
9:48 AM,65.3,54.7,68,30.28,10.0,South,4.6,-,N/A,,Clear,190,2013-08-23 15:48:00
10:08 AM,67.6,54.1,62,30.28,10.0,SSW,6.9,-,N/A,,Clear,200,2013-08-23 16:08:00
10:28 AM,69.8,55.2,60,30.28,10.0,SSW,6.9,-,N/A,,Clear,200,2013-08-23 16:28:00
10:48 AM,72.0,55.9,57,30.28,10.0,South,11.5,17.3,N/A,,Clear,180,2013-08-23 16:48:00
11:08 AM,72.0,56.3,58,30.27,10.0,SSW,8.1,-,N/A,,Clear,210,2013-08-23 17:08:00
11:28 AM,71.1,56.7,60,30.27,10.0,South,10.4,-,N/A,,Clear,180,2013-08-23 17:28:00
11:48 AM,72.1,57.6,60,30.27,10.0,South,6.9,-,N/A,,Scattered Clouds,190,2013-08-23 17:48:00
12:08 PM,74.1,58.3,58,30.27,10.0,SSE,8.1,-,N/A,,Scattered Clouds,160,2013-08-23 18:08:00
12:28 PM,73.6,57.6,57,30.27,10.0,South,6.9,-,N/A,,Scattered Clouds,170,2013-08-23 18:28:00
12:48 PM,74.7,57.6,55,30.26,10.0,SSE,8.1,-,N/A,,Scattered Clouds,160,2013-08-23 18:48:00
1:08 PM,75.2,57.6,54,30.25,10.0,SSE,11.5,-,N/A,,Scattered Clouds,160,2013-08-23 19:08:00
1:28 PM,75.9,57.6,53,30.25,10.0,SE,4.6,-,N/A,,Clear,130,2013-08-23 19:28:00
1:48 PM,76.3,56.5,50,30.24,10.0,SSE,9.2,-,N/A,,Clear,160,2013-08-23 19:48:00
2:08 PM,77.4,56.1,48,30.23,10.0,SE,5.8,-,N/A,,Clear,130,2013-08-23 20:08:00
2:28 PM,78.3,54.0,43,30.22,10.0,South,9.2,-,N/A,,Clear,170,2013-08-23 20:28:00
2:48 PM,78.8,53.6,42,30.22,10.0,SSE,10.4,17.3,N/A,,Clear,160,2013-08-23 20:48:00
3:08 PM,79.7,51.6,38,30.21,10.0,South,12.7,17.3,N/A,,Clear,170,2013-08-23 21:08:00
3:28 PM,79.7,52.2,38,30.20,10.0,SSE,12.7,19.6,N/A,,Clear,160,2013-08-23 21:28:00
3:48 PM,79.9,48.2,33,30.19,10.0,South,13.8,-,N/A,,Clear,190,2013-08-23 21:48:00
4:08 PM,80.4,47.3,31,30.19,10.0,South,16.1,20.7,N/A,,Clear,180,2013-08-23 22:08:00
4:28 PM,80.4,47.5,31,30.18,10.0,South,16.1,-,N/A,,Clear,170,2013-08-23 22:28:00
4:48 PM,80.4,46.9,31,30.18,10.0,South,12.7,16.1,N/A,,Clear,180,2013-08-23 22:48:00
5:08 PM,79.9,45.3,29,30.18,10.0,South,16.1,20.7,N/A,,Clear,170,2013-08-23 23:08:00
5:28 PM,79.9,47.3,32,30.17,10.0,SSE,13.8,17.3,N/A,,Clear,160,2013-08-23 23:28:00
5:48 PM,79.0,46.4,32,30.17,10.0,SSE,12.7,18.4,N/A,,Clear,160,2013-08-23 23:48:00
6:08 PM,78.1,46.2,32,30.16,10.0,SSE,11.5,-,N/A,,Clear,160,2013-08-24 00:08:00
6:28 PM,76.3,47.7,36,30.16,10.0,SSE,10.4,-,N/A,,Clear,160,2013-08-24 00:28:00
6:48 PM,74.3,48.2,40,30.16,10.0,SSE,8.1,-,N/A,,Clear,160,2013-08-24 00:48:00
7:08 PM,71.4,49.3,45,30.16,10.0,SSE,5.8,-,N/A,,Clear,160,2013-08-24 01:08:00
7:28 PM,68.7,50.7,53,30.17,10.0,South,5.8,-,N/A,,Clear,170,2013-08-24 01:28:00
7:48 PM,68.0,49.3,51,30.17,10.0,SSE,5.8,-,N/A,,Clear,160,2013-08-24 01:48:00
8:08 PM,67.5,48.6,51,30.18,10.0,SSE,4.6,-,N/A,,Clear,150,2013-08-24 02:08:00
8:28 PM,66.2,48.4,53,30.19,10.0,SSE,8.1,-,N/A,,Clear,160,2013-08-24 02:28:00
8:48 PM,65.3,47.8,53,30.19,10.0,SSE,8.1,-,N/A,,Clear,150,2013-08-24 02:48:00
9:08 PM,66.2,47.1,50,30.20,10.0,SSE,10.4,-,N/A,,Clear,160,2013-08-24 03:08:00
9:28 PM,66.2,46.2,49,30.20,10.0,SSE,10.4,-,N/A,,Clear,160,2013-08-24 03:28:00
9:48 PM,65.3,45.9,49,30.20,10.0,SSE,10.4,-,N/A,,Clear,160,2013-08-24 03:48:00
10:08 PM,64.0,46.4,53,30.20,10.0,SSE,8.1,-,N/A,,Clear,160,2013-08-24 04:08:00
10:28 PM,62.6,45.9,54,30.20,10.0,SSE,6.9,-,N/A,,Clear,150,2013-08-24 04:28:00
10:48 PM,62.6,45.5,54,30.20,10.0,SSE,6.9,-,N/A,,Clear,150,2013-08-24 04:48:00
11:08 PM,62.1,45.1,54,30.20,10.0,ESE,3.5,-,N/A,,Clear,110,2013-08-24 05:08:00
11:28 PM,63.1,44.4,50,30.20,10.0,ESE,3.5,-,N/A,,Clear,120,2013-08-24 05:28:00
11:48 PM,63.3,43.2,48,30.19,10.0,SE,6.9,-,N/A,,Clear,140,2013-08-24 05:48:00